• MPC Preparation (Info)

  • MPEC 2016-H22 : 2016 HB

    The following Minor Planet Electronic Circular may be linked-to from your own Web pages, but must not otherwise be redistributed electronically.

    A form allowing access to any MPEC is at the bottom of this page.


    Read MPEC 2016-H21 Read MPEC 2016-H23


    M.P.E.C. 2016-H22                                Issued 2016 Apr. 18, 20:43 UT
    
         The Minor Planet Electronic Circulars contain information on unusual
             minor planets and routine data on comets.  They are published
        on behalf of Division F of the International Astronomical Union by the
              Minor Planet Center, Smithsonian Astrophysical Observatory,
                              Cambridge, MA 02138, U.S.A.
    
                 Prepared using the Tamkin Foundation Computer Network
    
                                  MPC@CFA.HARVARD.EDU
                URL https://www.minorplanetcenter.net/    ISSN 1523-6714
    
                                        2016 HB
    
    Observations:
         K16H00B* C2016 04 17.29548 14 07 05.78 +37 30 38.8          18.7 VqEH022703
         K16H00B  C2016 04 17.30103 14 07 11.97 +37 29 16.0          18.3 VqEH022703
         K16H00B  C2016 04 17.31225 14 07 24.55 +37 26 25.1          19.4 VqEH022703
         K16H00B  C2016 04 17.33172 14 07 46.25 +37 21 30.2          19.2 VqEH022703
         K16H00B  C2016 04 17.33223 14 07 46.80 +37 21 23.9          18.6 VqEH022703
         K16H00B  C2016 04 17.33273 14 07 47.37 +37 21 15.2          18.8 VqEH022703
         K16H00B  C2016 04 17.33323 14 07 48.00 +37 21 08.0          19.0 VqEH022703
         K16H00B  C2016 04 17.35820 14 08 15.59 +37 14 47.2          19.1 VqEH022G96
         K16H00B  C2016 04 17.36333 14 08 21.25 +37 13 28.9          18.5 VqEH022G96
         K16H00B  C2016 04 17.36847 14 08 26.96 +37 12 09.8          18.7 VqEH022G96
         K16H00B  C2016 04 17.37360 14 08 32.61 +37 10 51.7          19.2 VqEH022G96
         K16H00B  C2016 04 17.43535 14 09 40.72 +36 54 59.3          18.8 VqEH022703
         K16H00B  C2016 04 17.43666 14 09 42.12 +36 54 39.6          19.2 VqEH022703
         K16H00B  C2016 04 17.43797 14 09 43.56 +36 54 18.5          18.7 VqEH022703
         K16H00B  C2016 04 17.53549 14 11 59.44 +36 29 57.3          18.9 VqEH022900
         K16H00B  C2016 04 17.55062 14 12 15.52 +36 26 20.7          18.4 VqEH022900
         K16H00B  C2016 04 17.55818 14 12 23.62 +36 24 30.2          18.6 VqEH022900
         K16H00B KC2016 04 17.96455 14 19 41.59 +34 45 45.4                qEH022J95
         K16H00B KC2016 04 17.96844 14 19 45.33 +34 44 51.3                qEH022J95
         K16H00B KC2016 04 17.97228 14 19 49.00 +34 43 58.3          18.7 RqEH022J95
         K16H00B  C2016 04 18.15182 14 22 59.54 +34 02 41.2          18.9 RuEH022926
         K16H00B  C2016 04 18.15405 14 23 01.71 +34 02 12.6          19.0 RuEH022926
         K16H00B  C2016 04 18.15627 14 23 03.77 +34 01 43.8          18.9 RuEH022926
         K16H00B  C2016 04 18.26532 14 24 41.24 +33 37 46.7          19.1 RuEH022926
         K16H00B  C2016 04 18.26753 14 24 43.14 +33 37 17.4          19.2 RuEH022926
         K16H00B  C2016 04 18.26976 14 24 45.06 +33 36 48.0          19.2 RuEH022926
         K16H00B  C2016 04 18.28825 14 25 00.78 +33 32 38.1          19.1 VqEH022G96
         K16H00B  C2016 04 18.29373 14 25 05.45 +33 31 25.0          19.2 VqEH022G96
         K16H00B  C2016 04 18.29924 14 25 10.15 +33 30 11.2          19.3 VqEH022G96
         K16H00B  C2016 04 18.30469 14 25 14.78 +33 28 58.1          19.1 VqEH022G96
         K16H00B  C2016 04 18.32533 14 25 32.13 +33 24 22.5          18.5 VqEH022G96
         K16H00B  C2016 04 18.33209 14 25 37.80 +33 22 51.6          18.8 VqEH022G96
         K16H00B  C2016 04 18.33885 14 25 43.46 +33 21 20.9          18.6 VqEH022G96
         K16H00B  C2016 04 18.34564 14 25 49.14 +33 19 49.4          18.6 VqEH022G96
         K16H00B KC2016 04 18.35688 14 25 52.58 +33 16 51.1          18.8 RqEH022850
         K16H00B KC2016 04 18.37096 14 26 04.53 +33 13 37.3          18.7 RqEH022850
         K16H00B KC2016 04 18.38488 14 26 16.42 +33 10 26.5          18.7 RqEH022850
         K16H00B KC2016 04 18.39883 14 26 28.38 +33 07 13.8          18.7 RqEH022850
         K16H00B  C2016 04 18.41259 14 26 44.81 +33 04 47.4          18.8 RuEH022926
         K16H00B KC2016 04 18.41273 14 26 40.31 +33 04 02.1          18.8 RqEH022850
         K16H00B  C2016 04 18.41484 14 26 46.69 +33 04 16.8          19.1 RuEH022926
         K16H00B  C2016 04 18.41708 14 26 48.55 +33 03 46.5          19.1 RuEH022926
         K16H00B  C2016 04 18.47197 14 27 34.40 +32 51 16.9          19.1 RuEH022926
         K16H00B  C2016 04 18.47418 14 27 36.24 +32 50 46.8          19.2 RuEH022926
         K16H00B  C2016 04 18.47640 14 27 38.13 +32 50 16.2          19.1 RuEH022926
         K16H00B  C2016 04 18.48668 14 27 46.95 +32 47 52.5          18.8 VqEH022703
         K16H00B  C2016 04 18.48718 14 27 47.29 +32 47 46.1          18.6 VqEH022703
         K16H00B  C2016 04 18.48769 14 27 47.73 +32 47 38.4          18.1 VqEH022703
         K16H00B KC2016 04 18.83029 14 33 06.20 +31 33 25.6          18.9 RqEH022160
         K16H00B KC2016 04 18.83246 14 33 07.93 +31 33 00.2          18.3 RqEH022160
         K16H00B KC2016 04 18.83461 14 33 09.56 +31 32 33.5          18.8 RqEH022160
    
    Observer details:
    160 Castelmartini.  Observers M. Jaeger, E. Prosperi, S. Prosperi, W. Vollmann.
        Measurer E. Prosperi.  0.35-m f/10 Schmidt-Cassegrain + CCD.
    703 Catalina Sky Survey.  Observer G. J. Leonard.  Measurers E. J. Christensen,
        D. C. Fuls, A. R. Gibbs, A. D. Grauer, J. A. Johnson, R. A. Kowalski,
        S. M. Larson, G. J. Leonard, R. G. Matheny, R. L. Seaman, F. C. Shelly.
        0.68-m Schmidt + CCD.
    850 Cordell-Lorenz Observatory, Sewanee.  Observers D. T. Durig, P. B. Roper.
        0.3-m f/2.6 Schmidt-Cassegrain + CCD.
    900 Moriyama.  Observer Y. Ikari.  0.26-m f/7.0 reflector + CCD.
    926 Tenagra II Observatory.  Observers M. Schwartz, P. R. Holvorcem.  Measurer
        M. Schwartz.  0.41-m f/3.75 astrograph + CCD.
    G96 Mt. Lemmon Survey.  Observer R. G. Matheny.  Measurers E. J. Christensen,
        D. C. Fuls, A. R. Gibbs, A. D. Grauer, J. A. Johnson, R. A. Kowalski,
        S. M. Larson, G. J. Leonard, R. G. Matheny, R. L. Seaman, F. C. Shelly.
        1.5-m reflector + CCD.
    J95 Great Shefford.  Observer P. Birtwhistle.  0.40-m f/6.0 Schmidt-Cassegrain
        + CCD.
    
    Orbital elements:
    2016 HB                                                  Earth MOID = 0.0124 AU
    Epoch 2016 Jan. 13.0 TT = JDT 2457400.5                 MPC
    M 331.58778              (2000.0)            P               Q
    n   0.43568949     Peri.  344.66449     -0.98841947     -0.15152718
    a   1.7232621      Node   186.63616     +0.14558936     -0.93179839
    e   0.4382534      Incl.    4.04512     +0.04278649     -0.32983521
    P   2.26           H   24.4           G   0.15           U   6
    Residuals in seconds of arc
    160417 703  0.5+  0.8-    160417 J95  0.2-  0.2-    160418 850  0.7+  0.6-
    160417 703  0.0   0.2+    160417 J95  0.0   0.3-    160418 850  0.1+  0.8-
    160417 703  0.1+  1.1-    160417 J95  0.1-  0.0     160418 850  0.0   0.0
    160417 703  0.1+  0.6-    160418 926  0.7-  0.3-    160418 850  0.1+  0.4-
    160417 703  0.1-  0.9+    160418 926  0.4+  0.3+    160418 926  0.1-  0.2+
    160417 703  0.1+  0.2-    160418 926  0.2+  0.6+    160418 850  0.1-  0.4-
    160417 703  1.0+  0.2+    160418 926  0.1+  0.1+    160418 926  0.1+  0.2+
    160417 G96  0.2-  0.2+    160418 926  0.1+  0.1+    160418 926  0.0   0.4+
    160417 G96  0.3-  0.4+    160418 926  0.1+  0.3+    160418 926  0.0   0.1+
    160417 G96  0.1+  0.0     160418 G96  0.0   0.2+    160418 926  0.2-  0.2+
    160417 G96  0.1-  0.5+    160418 G96  0.1+  0.1+    160418 926  0.0   0.0
    160417 703  0.2+  0.0     160418 G96  0.4+  0.2-    160418 703  0.7+  0.6+
    160417 703  0.4-  0.6+    160418 G96  0.6+  0.5-    160418 703  0.4-  1.0+
    160417 703  0.5-  0.2-    160418 G96  0.0   0.2+    160418 703  0.3-  0.3+
    160417 900  0.2-  0.3+    160418 G96  0.0   0.0     160418 160  0.2-  0.5-
    160417 900  0.9-  1.2+    160418 G96  0.0   0.1+    160418 160  0.1+  0.4+
    160417 900  0.2+  0.4-    160418 G96  0.0   0.1-    160418 160  0.6-  0.3-
    
    Ephemeris:
    2016 HB                  a,e,i = 1.72, 0.44, 4                   q = 0.9680
    Date    TT    R. A. (2000) Decl.     Delta      r     Elong.  Phase     V
    2016 03 19    04 42 59.7 +13 31 11   0.1124  0.9681    72.7   101.0    23.3
    ...
    2016 04 03    05 37 06.6 +28 52 05   0.05072 0.9851    71.6   105.6    21.8
    ...
    2016 04 11    08 58 18.3 +54 57 40   0.02799 1.0059    96.9    81.5    19.5
    ...
    2016 04 17    14 00 41.2 +38 46 35   0.03417 1.0264   130.5    48.0    18.9
    2016 04 18    14 20 12.5 +34 38 53   0.03713 1.0301   133.8    44.8    19.0
    2016 04 19    14 35 11.8 +30 59 59   0.04041 1.0340   136.4    42.1    19.1
    ...
    2016 04 25    15 20 01.0 +17 05 51   0.06391 1.0591   145.2    32.8    19.9
    ...
    2016 05 03    15 39 13.2 +08 46 46   0.1001  1.0972   151.7    25.9    20.8
    ...
    2016 05 18    15 48 23.8 +01 29 07   0.1780  1.1793   158.9    18.0    21.9
    
    A. U. Tomatic                (C) Copyright 2016 MPC           M.P.E.C. 2016-H22
    

    Read MPEC 2016-H21 Read MPEC 2016-H23


    MPEC number:

    Enter an MPEC number in one of the following forms:

    • 1997-B01 (the full form)
    • J97B01 (the packed version of the full form)
    • B01 (the abbreviated form)